Home > Weather > Youngstown > Past weeks

Flag for USA Past Weather in Youngstown, Ohio, USA — Yesterday and Last 2 Weeks

Now
73 °F

Broken clouds.


Feels Like: 75 °F
Forecast: 67 / 86 °F
Wind: 8 mph from Southwest

Location: Youngstown-Warren Regional Airport

Current Time: May 27, 2016 at 10:25:35 AM

Latest Report: May 27, 2016 at 9:51 AM


Visibility: 10 mi

Pressure: 30.03 "Hg

Humidity: 71%

Dew Point: 63 °F

Location of YoungstownLocation

Past Weather in Youngstown — Graph

°F

Youngstown Temperature Yesterday

Maximum temperature yesterday: 81 °F (at 2:51 PM)
Minimum temperature yesterday: 68 °F (at 5:51 AM)
Average temperature yesterday: 74 °F

High & Low Weather Summary for the Past Weeks

 TemperatureHumidityPressure
High82 °F (May 25, 3:51 PM)100% (May 22, 12:51 AM)30.25 "Hg (May 22, 12:51 AM)
Low33 °F (May 16, 2:51 AM)29% (May 24, 3:51 PM)29.65 "Hg (May 14, 8:51 AM)
Average58 °F66%30.04 "Hg
* Reported May 12 8:51 AM — May 27 8:51 AM, Youngstown, Weather by CustomWeather, © 2016

Note: Actual official high and low records may vary slightly from our data, if they occured in-between our weather recording intervals... More about our weather records

Advertising

Youngstown Weather History for the Previous 24 Hours

Scroll right to see more
 ConditionsComfort  
Time TempWeatherWind HumidityBarometerVisibility
8:51 AM
Fri, May 27
72 °FPartly sunny.7 mph73%30.03 "Hg10 mi
7:51 AM69 °FBroken clouds.8 mph84%30.03 "Hg8 mi
6:51 AM66 °FPassing clouds.6 mph93%30.02 "Hg7 mi
5:51 AM66 °FPassing clouds.6 mph93%30.00 "Hg8 mi
4:51 AM67 °FPartly cloudy.6 mph90%30.00 "Hg9 mi
3:51 AM68 °FPartly cloudy.7 mph87%29.99 "Hg10 mi
2:51 AM69 °FPartly cloudy.7 mph84%30.01 "Hg10 mi
1:51 AM70 °FPartly cloudy.6 mph81%30.01 "Hg10 mi
12:51 AM70 °FPassing clouds.5 mph81%30.02 "Hg10 mi
11:51 PM
Thu, May 26
71 °FPassing clouds.7 mph78%30.01 "Hg10 mi
10:51 PM71 °FPassing clouds.6 mph76%29.99 "Hg10 mi
9:51 PM72 °FPassing clouds.5 mph71%29.97 "Hg10 mi
8:51 PM74 °FPartly sunny.5 mph67%29.97 "Hg10 mi
7:51 PM77 °FPartly sunny.5 mph62%29.97 "Hg10 mi
6:51 PM79 °FBroken clouds.9 mph56%29.96 "Hg10 mi
5:51 PM79 °FPartly sunny.7 mph56%29.97 "Hg10 mi
4:51 PM81 °FPartly sunny.15 mph53%29.98 "Hg10 mi
3:51 PM81 °FBroken clouds.15 mph53%30.01 "Hg10 mi
2:51 PM81 °FMostly cloudy.13 mph53%30.01 "Hg10 mi
1:51 PM79 °FMostly cloudy.14 mph56%30.02 "Hg10 mi
12:51 PM79 °FMostly cloudy.13 mph54%30.02 "Hg10 mi
11:51 AM78 °FPartly sunny.16 mph58%30.03 "Hg10 mi
10:51 AM76 °FMostly cloudy.13 mph62%30.04 "Hg10 mi
Weather by CustomWeather, © 2016

See weather overviewHow to use our weather pages